Back to catalog

STARLINK-5923

AliveCommunicationsVLEO
NORAD 56489·PAYLOAD·🇺🇸 United States

Launched May 10, 2023 from Vandenberg Space Force Base

Loading…

Next Passes (next 24 hours)

TLE

FreshSource: CelesTrak SupGP

Epoch: Sep 14, 2026, 14:33 UTC

1 56489C 23064AT  26257.60673611  .00013579  00000+0  11381-2 0  2576
2 56489  70.0022 348.1551 0003429 273.7561 309.8763 14.98319629    10

Track STARLINK-5923 in real time with AllMySat

Download on the App Store